City of Long Branch

Burglary 2019

IR NUMBER CRIME FIRST DATE TIME BEAT PUBLIC ADDRESS
19LB00101 BURGLARY, TO MOTOR VEHICLE 01-02-2019 08:07 P251 4XX OCEAN BLVD, LONG BRANCH, NJ
19LB00148 BURGLARY, TO MOTOR VEHICLE 01-02-2019 17:30 P251 4XX OCEAN BLVD, LONG BRANCH, NJ
19LB00235 BURGLARY, TO MOTOR VEHICLE 01-02-2019 20:03 P254 1XX MATILDA TER, LONG BRANCH, NJ
19LB00252 BURGLARY, TO MOTOR VEHICLE 01-04-2019 02:12 P251 XX AVENEL BLVD, LONG BRANCH, NJ
19LB00380 BURGLARY, TO MOTOR VEHICLE 01-04-2019 15:30 P255 XX JIM LYNCH DR, LONG BRANCH, NJ
19LB00586 BURGLARY, TO MOTOR VEHICLE 01-07-2019 23:00 P251 5XX LONG BRANCH AVE, LONG BRANCH, NJ
19LB00770 BURGLARY, TO MOTOR VEHICLE 01-09-2019 02:00 P252 2XX 6TH AVE, LONG BRANCH, NJ
19LB00670 BURGLARY, TO MOTOR VEHICLE 01-09-2019 03:29 P252 2XX BRANCHPORT AVE, LONG BRANCH, NJ
19LB00937 BURGLARY, NONRES, ATT FORCE EN 01-12-2019 18:57 P254 1XX GARRETT DR, LONG BRANCH, NJ
19LB01299 BURGLARY, TO MOTOR VEHICLE 01-13-2019 20:00 P255 2XX NORGROVE PL, LONG BRANCH, NJ
19LB01046 BURGLARY, TO MOTOR VEHICLE 01-13-2019 23:00 P255 9XX WOODGATE AVE, LONG BRANCH, NJ
19LB01048 BURGLARY, TO MOTOR VEHICLE 01-14-2019 03:04 P255 1XX VOZI CT, LONG BRANCH, NJ
19LB01170 BURGLARY, TO MOTOR VEHICLE 01-15-2019 12:38 P255 9XX WOODGATE AVE, LONG BRANCH, NJ
19LB01526 BURGLARY, TO MOTOR VEHICLE 01-19-2019 09:50 P253 3XX POOLE AVE, LONG BRANCH, NJ
19LB02298 BURGLARY, RESD, UNLAWFUL EN 01-27-2019 10:02 P255 7XX WERTHEIM PL, LONG BRANCH, NJ
19LB03268 BURGLARY, TO MOTOR VEHICLE 02-08-2019 01:39 P254 1XX GARRETT DR, LONG BRANCH, NJ
19LB03268 BURGLARY, TO MOTOR VEHICLE 02-08-2019 01:39 P254 1XX GARRETT DR, LONG BRANCH, NJ
19LB03280 BURGLARY, NONRES, UNLAWFUL EN 02-08-2019 07:55 P254 3XX WESTWOOD AVE, LONG BRANCH, NJ
19LB03280 BURGLARY, NONRES, UNLAWFUL EN 02-08-2019 07:55 P254 3XX WESTWOOD AVE, LONG BRANCH, NJ
19LB03641 BURGLARY, TO MOTOR VEHICLE 02-12-2019 15:10 P252 XX JACKSON ST, LONG BRANCH, NJ
19LB06284 BURGLARY, NONRES, ATT FORCE EN 02-15-2019 13:41 P255 1XX CEDAR AVE, LONG BRANCH, NJ
19LB05208 BURGLARY, NONRES, UNLAWFUL EN 02-15-2019 19:21 P255 3XX NORWOOD AVE, LONG BRANCH, NJ
19LB04079 BURGLARY, TO MOTOR VEHICLE 02-17-2019 14:51 P254 4XX WEST END AVE, LONG BRANCH, NJ
19LB04485 BURGLARY, TO MOTOR VEHICLE 02-22-2019 06:54 P251 1XX WITMER PL, LONG BRANCH, NJ
19LB04834 BURGLARY, TO MOTOR VEHICLE 02-26-2019 02:04 P255 XX JIM LYNCH DR, LONG BRANCH, NJ
19LB04865 BURGLARY, NONRES, ATT FORCE EN 02-26-2019 12:35 P254 XX OAKWOOD AVE, LONG BRANCH, NJ
19LB05228 BURGLARY, TO MOTOR VEHICLE 02-28-2019 20:17 P255 2XX LENOX AVE, LONG BRANCH, NJ
19LB05201 BURGLARY, TO MOTOR VEHICLE 03-01-2019 10:00 P254 4XX HIGH ST, LONG BRANCH, NJ
19LB05176 BURGLARY, TO MOTOR VEHICLE 03-02-2019 01:08 P254 5XX OCEAN BLVD S, LONG BRANCH, NJ
19LB05176 BURGLARY, TO MOTOR VEHICLE 03-02-2019 01:08 P254 5XX OCEAN BLVD S, LONG BRANCH, NJ
19LB05183 BURGLARY, TO MOTOR VEHICLE 03-02-2019 01:30 P253 4XX BATH AVE, LONG BRANCH, NJ
19LB06492 BURGLARY, TO MOTOR VEHICLE 03-16-2019 18:30 P255 3XX OAKLEY AVE, LONG BRANCH, NJ
19LB06537 BURGLARY, TO MOTOR VEHICLE 03-18-2019 06:36 P255 10XX NORWOOD AVE, LONG BRANCH, NJ
19LB06537 BURGLARY, TO MOTOR VEHICLE 03-18-2019 06:36 P255 10XX NORWOOD AVE, LONG BRANCH, NJ
19LB06537 BURGLARY, NONRES, ATT FORCE EN 03-18-2019 06:36 P255 10XX NORWOOD AVE, LONG BRANCH, NJ
19LB06537 BURGLARY, NONRES, ATT FORCE EN 03-18-2019 06:36 P255 10XX NORWOOD AVE, LONG BRANCH, NJ
19LB06972 BURGLARY, RESD, UNLAWFUL EN 03-23-2019 05:34 P251 X COLONIA DR, LONG BRANCH, NJ
19LB06972 BURGLARY, RESD, UNLAWFUL EN 03-23-2019 05:34 P251 X COLONIA DR, LONG BRANCH, NJ
19LB07013 BURGLARY, RESD, UNLAWFUL EN 03-23-2019 20:37 P254 3XX EASTBOURNE AVE, LONG BRANCH, NJ
19LB07309 BURGLARY, NONRES, ATT FORCE EN 03-27-2019 10:54 P251 1XX LIBERTY ST, LONG BRANCH, NJ
19LB08772 BURGLARY, RESD, UNLAWFUL EN 03-30-2019 20:00 P254 3XX BATH AVE, LONG BRANCH, NJ
19LB07641 BURGLARY, TO MOTOR VEHICLE 03-31-2019 14:04 P254 5XX SPRINGDALE AVE, LONG BRANCH, NJ
19LB07641 BURGLARY, TO MOTOR VEHICLE 03-31-2019 14:04 P254 5XX SPRINGDALE AVE, LONG BRANCH, NJ
19LB07983 BURGLARY, TO MOTOR VEHICLE 04-03-2019 00:56 P252 2XX 7TH AVE, LONG BRANCH, NJ
19LB08030 BURGLARY, ATTEMPT TO MOTOR VEH 04-03-2019 23:30 P254 XX EASTBOURNE AVE, LONG BRANCH, NJ
19LB08024 BURGLARY, ATTEMPT TO MOTOR VEH 04-04-2019 05:08 P254 1XX MATILDA TER, LONG BRANCH, NJ
19LB08428 BURGLARY, NONRES, ATT FORCE EN 04-09-2019 10:35 P252 XX JACKSON ST, LONG BRANCH, NJ
19LB08674 BURGLARY, RESD, UNLAWFUL EN 04-11-2019 12:00 P251 2XX LONG BRANCH AVE, LONG BRANCH, NJ
19LB09615 BURGLARY, TO MOTOR VEHICLE 04-18-2019 19:00 P251 1XX AVENEL BLVD, LONG BRANCH, NJ
19LB09317 BURGLARY, ATTEMPT TO MOTOR VEH 04-18-2019 21:00 P251 4XX OCEAN BLVD, LONG BRANCH, NJ
19LB09511 BURGLARY, TO MOTOR VEHICLE 04-22-2019 10:13 P253 2XX CLINTON PL, LONG BRANCH, NJ
19LB09619 BURGLARY, ATTEMPT TO MOTOR VEH 04-23-2019 13:30 P251 1XX AVENEL BLVD, LONG BRANCH, NJ
19LB09653 BURGLARY, TO MOTOR VEHICLE 04-23-2019 18:59 P251 3XX MAC ARTHUR AVE, LONG BRANCH, NJ
19LB10125 BURGLARY, RESD, UNLAWFUL EN 04-28-2019 11:58 P251 2XX SEAVIEW AVE, LONG BRANCH, NJ
19LB11202 BURGLARY, TO MOTOR VEHICLE 05-03-2019 16:15 P254 NORWOOD AVE & WEST END AVE, LB
19LB10830 BURGLARY, NONRES, UNLAWFUL EN 05-06-2019 07:58 P251 1XX BROADWAY, LONG BRANCH, NJ
19LB11153 BURGLARY, RESD, FORCE EN 05-09-2019 15:36 P255 2XX ROYAL PL, LONG BRANCH, NJ
19LB11383 BURGLARY, TO MOTOR VEHICLE 05-11-2019 00:00 P252 4XX DEWEY ST, LONG BRANCH, NJ
19LB11454 BURGLARY, NONRES, ATT FORCE EN 05-11-2019 21:00 P254 4XX WINTER ST, LONG BRANCH, NJ
19LB11463 BURGLARY, RESD, UNLAWFUL EN 05-13-2019 12:04 P251 1XX JOLINE AVE, LONG BRANCH, NJ
19LB11608 BURGLARY, TO MOTOR VEHICLE 05-14-2019 14:30 P251 4XX OCEAN BLVD, LONG BRANCH, NJ
19LB11703 BURGLARY, NONRES, ATT FORCE EN 05-16-2019 12:52 P255 1XX CEDAR AVE, LONG BRANCH, NJ
19LB12017 BURGLARY, NONRES, ATT FORCE EN 05-19-2019 21:00 P252 5XX BERDAN PL, LONG BRANCH, NJ
19LB12745 BURGLARY, NONRES, ATT FORCE EN 05-26-2019 19:11 P254 1XX GARRETT DR, LONG BRANCH, NJ
19LB13037 BURGLARY, NONRES, ATT FORCE EN 05-27-2019 11:00 P251 2XX SEAVIEW AVE, LONG BRANCH, NJ
19LB13538 BURGLARY, TO MOTOR VEHICLE 05-31-2019 17:15 P253 X OCEAN BLVD, LONG BRANCH, NJ
19LB14473 BURGLARY, NONRES, ATT FORCE EN 06-13-2019 00:00 P252 5XX BROADWAY, LONG BRANCH, NJ
19LB14180 BURGLARY, RESD, FORCE EN 06-10-2019 00:00 P253 3XX BATH AVE, LONG BRANCH, NJ
19LB15995 BURGLARY, NONRES, ATT FORCE EN 06-28-2019 00:00 P252 XX JACKSON ST, LONG BRANCH, NJ
19LB15995 BURGLARY, NONRES, ATT FORCE EN 06-28-2019 00:00 P252 XX JACKSON ST, LONG BRANCH, NJ
19LB16040 BURGLARY, ATTEMPT TO MOTOR VEH 06-28-2019 00:00 P252 5XX BROADWAY, LONG BRANCH, NJ
19LB14813 BURGLARY, NONRES, ATT FORCE EN 06-17-2019 00:00 P253 2XX JANE ST, LONG BRANCH, NJ
19LB13902 BURGLARY, TO MOTOR VEHICLE 06-07-2019 00:00 P253 X OCEAN BLVD, LONG BRANCH, NJ
19LB16360 BURGLARY, NONRES, UNLAWFUL EN 06-30-2019 00:00 P253 XX MELROSE TER, LONG BRANCH, NJ
19LB16360 BURGLARY, NONRES, UNLAWFUL EN 06-30-2019 00:00 P253 XX MELROSE TER, LONG BRANCH, NJ
19LB17292 BURGLARY, TO MOTOR VEHICLE 07-09-2019 15:45 P254 6XX MORFORD AVE, LONG BRANCH, NJ
19LB17342 BURGLARY, TO MOTOR VEHICLE 07-10-2019 00:38 P251 1XX ATLANTIC AVE, LONG BRANCH, NJ
19LB17392 BURGLARY, TO MOTOR VEHICLE 07-10-2019 12:24 P254 6XX MORFORD AVE, LONG BRANCH, NJ
19LB17434 BURGLARY, NONRES, ATT FORCE EN 07-10-2019 20:36 P254 6XX CONOVER ST, LONG BRANCH, NJ
19LB18527 BURGLARY, NONRES, UNLAWFUL EN 07-14-2019 16:57 P255 9XX WOODGATE AVE, LONG BRANCH, NJ
19LB18425 BURGLARY, NONRES, ATT FORCE EN 07-16-2019 23:00 P252 XX ROCKWELL AVE, LONG BRANCH, NJ
19LB18460 BURGLARY, TO MOTOR VEHICLE 07-19-2019 01:45 P253 XX COMMUNITY PL, LONG BRANCH, NJ
19LB19271 BURGLARY, RESD, FORCE EN 07-25-2019 23:37 P251 1XX LIBERTY ST, LONG BRANCH, NJ
19LB19685 BURGLARY, TO MOTOR VEHICLE 07-29-2019 01:20 P253 4XX WILLOW AVE, LONG BRANCH, NJ
19LB19966 BURGLARY, RESD, UNLAWFUL EN 07-31-2019 19:48 P252 XX MYRTLE AVE, LONG BRANCH, NJ
19LB22261 BURGLARY, ATTEMPT TO MOTOR VEH 08-20-2019 21:49 P255 1XX WEST END CT, LONG BRANCH, NJ
19LB21151 BURGLARY, NONRES, ATT FORCE EN 08-11-2019 13:18 P253 1XX 3RD AVE, LONG BRANCH, NJ
19LB20850 BURGLARY, NONRES, ATT FORCE EN 08-08-2019 10:00 P252 XX ROCKWELL AVE, LONG BRANCH, NJ
19LB22467 BURGLARY, NONRES, ATT FORCE EN 08-22-2019 21:18 P252 XX LIPPINCOTT AVE, LONG BRANCH, NJ
19LB22904 BURGLARY, TO MOTOR VEHICLE 08-27-2019 06:35 P252 2XX BRANCHPORT AVE, LONG BRANCH, NJ
19LB20940 BURGLARY, TO MOTOR VEHICLE 08-08-2019 22:00 P252 4XX ATLANTIC AVE, LONG BRANCH, NJ
19LB21352 BURGLARY, TO MOTOR VEHICLE 08-13-2019 10:36 P254 PEARL AVE & BATH ST, LONG BRANCH, NJ
19LB21616 BURGLARY, TO MOTOR VEHICLE 08-15-2019 15:53 P252 XX 6TH AVE, LONG BRANCH, NJ
19LB20648 THEFT, VEH, AUTOMOBILE 08-06-2019 20:32 P252 5XX JOLINE AVE, LONG BRANCH, NJ
19LB21328 THEFT, VEH, AUTOMOBILE 08-13-2019 04:40 P253 XX 2ND AVE, LONG BRANCH, NJ
19LB23418 BURGLARY, NONRES, ATT FORCE EN 09-01-2019 03:20 P252 4XX BROADWAY, LONG BRANCH, NJ
19LB23563 BURGLARY, NONRES, ATT FORCE EN 09-01-2019 17:00 P253 1XX 3RD AVE, LONG BRANCH, NJ
19LB23681 BURGLARY, NONRES, ATT FORCE EN 09-03-2019 07:00 P255 XX CEDAR AVE, LONG BRANCH, NJ
19LB23846 BURGLARY, NONRES, ATT FORCE EN 09-05-2019 11:20 P254 4XX BRIGHTON AVE, LONG BRANCH, NJ
19LB23856 BURGLARY, TO MOTOR VEHICLE 09-05-2019 12:15 P253 1XX BATH AVE, LONG BRANCH, NJ
19LB23975 BURGLARY, NONRES, ATT FORCE EN 09-06-2019 18:06 P252 6XX BROADWAY, LONG BRANCH, NJ
19LB24261 BURGLARY, RESD, UNLAWFUL EN 09-09-2019 12:40 P251 XX AVENEL BLVD, LONG BRANCH, NJ
19LB24309 BURGLARY, NONRES, ATT FORCE EN 09-10-2019 00:08 P254 3XX WAVERLY PL, LONG BRANCH, NJ
19LB24435 THEFT, VEH, AUTOMOBILE 09-10-2019 23:00 P252 4XX W COLUMBUS PL, LONG BRANCH, NJ
19LB24472 THEFT, VEH, AUTOMOBILE 09-11-2019 11:51 P252 W COLUMBUS PL, LONG BRANCH, NJ
19LB25108 BURGLARY, TO MOTOR VEHICLE 09-17-2019 14:41 P251 N 3RD AVE & UNION AVE, LONG BRANCH, NJ
19LB25314 BURGLARY, NONRES, ATT FORCE EN 09-19-2019 07:30 P254 3XX EASTBOURNE AVE, LONG BRANCH, NJ
19LB25868 BURGLARY, NONRES, ATT FORCE EN 09-24-2019 22:46 P253 2XX CLEVELAND AVE, LONG BRANCH, NJ
19LB26043 BURGLARY, TO MOTOR VEHICLE 09-26-2019 01:00 P255 4XX BROOKDALE AVE, LONG BRANCH, NJ
19LB26571 THEFT, VEH, AUTOMOBILE 09-28-2019 12:00 P255 X BERG AVE, LONG BRANCH, NJ
19LB26363 BURGLARY, ATTEMPT TO MOTOR VEH 09-29-2019 01:05 P251 1XX KINGSLEY ST, LONG BRANCH, NJ
19LB26481 BURGLARY, NONRES, ATT FORCE EN 09-30-2019 08:40 P254 4XX BATH AVE, LONG BRANCH, NJ
19LB26548 BURGLARY, NONRES, FORCE EN 10-01-2019 00:08 P253 1XX BROADWAY, LONG BRANCH, NJ
19LB27329 BURGLARY, NONRES, ATT FORCE EN 10-06-2019 18:15 P255 1XX BRIGHTON AVE, LONG BRANCH, NJ
19LB27194 BURGLARY, RESD, UNLAWFUL EN 10-07-2019 17:51 P254 3XX 2ND AVE, LONG BRANCH, NJ
19LB27255 BURGLARY, ATTEMPT TO MOTOR VEH 10-08-2019 14:28 P254 CONOVER ST, LONG BRANCH, NJ
19LB27976 BURGLARY, NONRES, ATT FORCE EN 10-16-2019 09:47 P252 2XX ROCKWELL AVE, LONG BRANCH, NJ
19LB29865 THEFT, VEH, AUTOMOBILE 11-05-2019 00:34 P255 1XX VOZI CT, LONG BRANCH, NJ
19LB31073 BURGLARY, TO MOTOR VEHICLE 11-19-2019 01:38 P255 XX JIM LYNCH DR, LONG BRANCH, NJ
19LB31769 BURGLARY, NONRES, FORCE EN 11-26-2019 15:53 P253 1XX BELMONT AVE, LONG BRANCH, NJ
19LB32128 BURGLARY, NONRES, ATT FORCE EN 12-01-2019 16:39 P254 4XX SAIRS AVE, LONG BRANCH, NJ
19LB32182 BURGLARY, TO MOTOR VEHICLE 12-01-2019 19:03 P254 4XX OCEAN AVE, LONG BRANCH, NJ
19LB32848 BURGLARY, TO MOTOR VEHICLE 12-07-2019 00:00 P254 4XX WESTBOURNE AVE, LONG BRANCH, NJ
19LB33158 BURGLARY, TO MOTOR VEHICLE 12-12-2019 17:20 P252 1XX EDWARDS AVE, LONG BRANCH, NJ
19LB33363 BURGLARY, NONRES, ATT FORCE EN 12-14-2019 21:00 P251 XX COOPER AVE, LONG BRANCH, NJ
19LB33578 BURGLARY, NONRES, ATT FORCE EN 12-15-2019 16:00 P252 1XX ROCKWELL AVE, LONG BRANCH, NJ
19LB33834 BURGLARY, NONRES, ATT FORCE EN 12-19-2019 16:30 P252 1XX MYRTLE AVE, LONG BRANCH, NJ
19LB34160 BURGLARY, NONRES, ATT FORCE EN 12-23-2019 08:23 P253 3XX BROADWAY, LONG BRANCH, NJ
19LB34372 BURGLARY, NONRES, ATT FORCE EN 12-26-2019 09:14 P254 2XX JENNINGS LN, LONG BRANCH, NJ


Burglary 2019.xls

Burglary 2019.pdf